Weather History for Denali Park, AK

Change the Weather History Date:

Tuesday, November 5, 2013

  Actual Average Record
Temperature  
Mean Temperature 20 °F -  
Max Temperature 26 °F 23 °F 51 °F (2002)
Min Temperature 12 °F 5 °F -22 °F (1955)
Degree Days  
Heating Degree Days 45    
Moisture  
Dew Point 18 °F    
Average Humidity 90    
Maximum Humidity 100    
Minimum Humidity 79    
Precipitation  
Precipitation 0.00 in - - ()
Sea Level Pressure  
Sea Level Pressure 29.78 in    
Wind  
Wind Speed 6 mph (North)    
Max Wind Speed 16 mph    
Max Gust Speed 23 mph    
Visibility 7 miles    
Events      
Averages and records for this station are not official NWS values.
T = Trace of Precipitation, MM = Missing Value Source: NWS Daily Summary

Daily Weather History Graph

Daily Weather History Graph

Search for Another Location

Airport:

Trip Planner

Search our weather history database for the weather conditions in past years. The results will help you decide how hot, cold, wet, or windy it might be!

Date:

Astronomy

Nov. 05, 2013 Rise Set
Actual Time 8:50 AM AKST 4:26 PM AKST
Civil Twilight 7:56 AM AKST 5:20 PM AKST
Nautical Twilight 6:59 AM AKST 6:18 PM AKST
Astronomical Twilight 6:04 AM AKST 7:12 PM AKST
Moon 11:54 AM AKST (11/5) 5:59 PM AKST (11/5)
Length of Visible Light 9h 24m
Length of Day
7h 36m
Waxing Crescent, 7% of the Moon is Illuminated
Nov 5
Waxing Crescent
Nov 9
First Quarter
Nov 17
Full
Nov 25
Last Quarter
Dec 2
New

Hourly Weather History & Observations

Time (AKST) Temp. Windchill Dew Point Humidity Pressure Visibility Wind Dir Wind Speed Gust Speed Precip Events Conditions
12:16 AM 15.8 °F - 14.0 °F 93% 29.42 in 10.0 mi Calm Calm - N/A   Clear
12:36 AM 15.8 °F - 14.0 °F 93% 29.44 in 10.0 mi Calm Calm - N/A   Clear
12:56 AM 14.0 °F - 12.2 °F 93% 29.44 in 10.0 mi Calm Calm - N/A   Clear
1:16 AM 14.0 °F - 12.2 °F 93% 29.45 in 10.0 mi Calm Calm - N/A   Clear
1:36 AM 14.0 °F - 12.2 °F 93% 29.46 in 10.0 mi Calm Calm - N/A   Clear
1:56 AM 14.0 °F - 12.2 °F 93% 29.46 in 10.0 mi Calm Calm - N/A   Clear
2:16 AM 15.8 °F 8.6 °F 15.8 °F 100% 29.47 in 10.0 mi North 4.6 mph - N/A   Partly Cloudy
2:36 AM 17.6 °F 12.3 °F 17.6 °F 100% 29.48 in 10.0 mi NW 3.5 mph - N/A   Mostly Cloudy
2:56 AM 19.4 °F 7.9 °F 19.4 °F 100% 29.48 in 10.0 mi NNW 10.4 mph - N/A   Overcast
3:16 AM 19.4 °F 9.5 °F 17.6 °F 93% 29.49 in 10.0 mi NNW 8.1 mph - N/A   Overcast
3:36 AM 21.2 °F 10.9 °F 21.2 °F 100% 29.49 in 10.0 mi North 9.2 mph - N/A   Overcast
3:56 AM 21.2 °F 10.1 °F 21.2 °F 100% 29.50 in 10.0 mi North 10.4 mph - N/A   Overcast
4:16 AM 21.2 °F 10.9 °F 19.4 °F 93% 29.51 in 10.0 mi North 9.2 mph - N/A   Overcast
4:36 AM 21.2 °F 10.9 °F 19.4 °F 93% 29.52 in 10.0 mi NNE 9.2 mph 16.1 mph N/A   Overcast
4:56 AM 21.2 °F 10.1 °F 19.4 °F 93% 29.52 in 9.0 mi North 10.4 mph 16.1 mph N/A   Overcast
5:16 AM 21.2 °F 9.5 °F 19.4 °F 93% 29.53 in 10.0 mi NNE 11.5 mph 16.1 mph N/A   Overcast
5:36 AM 21.2 °F 10.1 °F 19.4 °F 93% 29.54 in 9.0 mi North 10.4 mph - N/A   Overcast
5:56 AM 21.2 °F 10.1 °F 19.4 °F 93% 29.55 in 10.0 mi North 10.4 mph - N/A   Overcast
6:16 AM 21.2 °F 10.9 °F 19.4 °F 93% 29.57 in 5.0 mi North 9.2 mph - N/A   Overcast
6:36 AM 21.2 °F 10.9 °F 21.2 °F 100% 29.58 in 5.0 mi North 9.2 mph - N/A   Overcast
6:56 AM 21.2 °F 11.7 °F 19.4 °F 93% 29.59 in 6.0 mi North 8.1 mph - N/A   Overcast
7:16 AM 23.0 °F 13.1 °F 21.2 °F 93% 29.60 in 7.0 mi North 9.2 mph - N/A   Overcast
7:36 AM 23.0 °F 13.9 °F 23.0 °F 100% 29.61 in 6.0 mi North 8.1 mph - N/A   Overcast
7:56 AM 23.0 °F 13.9 °F 23.0 °F 100% 29.62 in 3.0 mi NNE 8.1 mph - N/A   Overcast
8:16 AM 24.8 °F 16.1 °F 24.8 °F 100% 29.63 in 3.0 mi NNE 8.1 mph - N/A   Overcast
8:36 AM 24.8 °F 14.6 °F 24.8 °F 100% 29.64 in 3.0 mi NNE 10.4 mph - N/A   Overcast
8:56 AM 24.8 °F 15.3 °F 23.0 °F 93% 29.66 in 2.0 mi North 9.2 mph 18.4 mph N/A   Overcast
9:16 AM 24.8 °F 16.1 °F 23.0 °F 93% 29.67 in 1.8 mi North 8.1 mph 17.3 mph N/A   Overcast
9:36 AM 24.8 °F 15.3 °F 24.8 °F 100% 29.69 in 3.0 mi North 9.2 mph 16.1 mph N/A   Overcast
9:56 AM 24.8 °F 15.3 °F 24.8 °F 100% 29.70 in 4.0 mi North 9.2 mph 16.1 mph N/A   Overcast
10:16 AM 24.8 °F 13.4 °F 24.8 °F 100% 29.72 in 4.0 mi North 12.7 mph 18.4 mph N/A   Overcast
10:36 AM 26.6 °F 16.2 °F 23.0 °F 86% 29.73 in 2.5 mi North 11.5 mph 19.6 mph N/A   Overcast
10:56 AM 26.6 °F 16.2 °F 23.0 °F 86% 29.75 in 2.5 mi North 11.5 mph 18.4 mph N/A   Overcast
11:16 AM 24.8 °F 14.0 °F 21.2 °F 86% 29.76 in 2.5 mi North 11.5 mph 19.6 mph N/A   Overcast
11:36 AM 24.8 °F 16.1 °F 21.2 °F 86% 29.78 in 3.0 mi NNE 8.1 mph 19.6 mph N/A   Overcast
11:56 AM 24.8 °F 14.0 °F 21.2 °F 86% 29.78 in 7.0 mi North 11.5 mph 16.1 mph N/A   Overcast
12:16 PM 24.8 °F 12.9 °F 21.2 °F 86% 29.79 in 5.0 mi NNE 13.8 mph 21.9 mph N/A   Overcast
12:36 PM 24.8 °F 14.0 °F 21.2 °F 86% 29.80 in 6.0 mi North 11.5 mph 20.7 mph N/A   Overcast
12:56 PM 24.8 °F 13.4 °F 19.4 °F 80% 29.81 in 5.0 mi North 12.7 mph 20.7 mph N/A   Overcast
1:16 PM 24.8 °F 14.0 °F 19.4 °F 80% 29.82 in 5.0 mi NNE 11.5 mph 20.7 mph N/A   Overcast
1:36 PM 24.8 °F 14.6 °F 19.4 °F 80% 29.84 in 4.0 mi North 10.4 mph 20.7 mph N/A   Overcast
1:56 PM 23.0 °F 12.4 °F 19.4 °F 86% 29.85 in 7.0 mi North 10.4 mph 17.3 mph N/A   Overcast
2:16 PM 23.0 °F 9.6 °F 17.6 °F 80% 29.86 in 8.0 mi North 16.1 mph 23.0 mph N/A   Overcast
2:36 PM 23.0 °F 12.4 °F 17.6 °F 80% 29.87 in 9.0 mi North 10.4 mph 17.3 mph N/A   Overcast
2:56 PM 23.0 °F 12.4 °F 17.6 °F 80% 29.88 in 10.0 mi North 10.4 mph 19.6 mph N/A   Overcast
3:16 PM 23.0 °F 13.9 °F 17.6 °F 80% 29.89 in 10.0 mi North 8.1 mph 19.6 mph N/A   Overcast
3:36 PM 23.0 °F 12.4 °F 17.6 °F 80% 29.90 in 9.0 mi North 10.4 mph 16.1 mph N/A   Overcast
3:56 PM 21.2 °F 10.1 °F 17.6 °F 86% 29.92 in 10.0 mi North 10.4 mph 19.6 mph N/A   Overcast
4:16 PM 21.2 °F 9.5 °F 17.6 °F 86% 29.93 in 6.0 mi NNE 11.5 mph 16.1 mph N/A   Overcast
4:36 PM 21.2 °F 10.9 °F 17.6 °F 86% 29.94 in 3.0 mi North 9.2 mph 17.3 mph N/A   Overcast
4:56 PM 21.2 °F 8.3 °F 17.6 °F 86% 29.95 in 3.0 mi NNE 13.8 mph 20.7 mph N/A   Overcast
5:16 PM 21.2 °F 11.7 °F 17.6 °F 86% 29.97 in 5.0 mi NNE 8.1 mph 19.6 mph N/A   Overcast
5:36 PM 19.4 °F 8.6 °F 17.6 °F 93% 29.98 in 5.0 mi North 9.2 mph - N/A   Overcast
5:56 PM 19.4 °F 8.6 °F 17.6 °F 93% 29.99 in 5.0 mi NNE 9.2 mph 16.1 mph N/A   Overcast
6:16 PM 19.4 °F 7.9 °F 17.6 °F 93% 30.00 in 7.0 mi North 10.4 mph - N/A   Overcast
6:36 PM 19.4 °F 10.4 °F 15.8 °F 86% 30.01 in 5.0 mi North 6.9 mph - N/A   Overcast
6:56 PM 19.4 °F 10.4 °F 17.6 °F 93% 30.02 in 4.0 mi North 6.9 mph - N/A   Overcast
7:16 PM 19.4 °F 10.4 °F 17.6 °F 93% 30.03 in 4.0 mi North 6.9 mph - N/A   Overcast
7:36 PM 19.4 °F 7.9 °F 15.8 °F 86% 30.04 in 3.0 mi North 10.4 mph 16.1 mph N/A   Overcast
7:56 PM 19.4 °F 8.6 °F 15.8 °F 86% 30.04 in 4.0 mi NNE 9.2 mph 16.1 mph N/A   Overcast
8:16 PM 19.4 °F 8.6 °F 15.8 °F 86% 30.05 in 3.0 mi North 9.2 mph 16.1 mph N/A   Mostly Cloudy
8:36 PM 17.6 °F 10.7 °F 15.8 °F 93% 30.05 in 5.0 mi North 4.6 mph - N/A   Overcast
8:56 PM 17.6 °F 10.7 °F 15.8 °F 93% 30.06 in 7.0 mi North 4.6 mph - N/A   Overcast
9:16 PM 17.6 °F - 14.0 °F 86% 30.07 in 6.0 mi Calm Calm - N/A   Overcast
9:36 PM 15.8 °F 10.2 °F 14.0 °F 93% 30.08 in 5.0 mi NNW 3.5 mph - N/A   Overcast
9:56 PM 17.6 °F 7.3 °F 15.8 °F 93% 30.09 in 5.0 mi North 8.1 mph - N/A   Overcast
10:16 PM 17.6 °F 10.7 °F 15.8 °F 93% 30.10 in 7.0 mi North 4.6 mph - N/A   Overcast
10:36 PM 17.6 °F 12.3 °F 14.0 °F 86% 30.10 in 10.0 mi NNW 3.5 mph - N/A   Overcast
10:56 PM 17.6 °F - 14.0 °F 86% 30.11 in 10.0 mi Calm Calm - N/A   Overcast
11:16 PM 15.8 °F - 12.2 °F 86% 30.11 in 10.0 mi Calm Calm - N/A   Overcast
11:36 PM 15.8 °F - 10.4 °F 79% 30.12 in 8.0 mi Calm Calm - N/A   Overcast
11:56 PM 12.2 °F - 8.6 °F 85% 30.12 in 10.0 mi Calm Calm - N/A   Overcast